STARLINK-5914 (55941 NORAD) Tracking and Keplerian Element Data

This shows tracking and keplerian element data for the satellite.

Feedback or suggestion? Click here.




ElementValue
Catalog55941
NameSTARLINK-5914
Epoch Orbit839
Epoch Day126.86890466
Epoch Year2023
RAAN40.2151
Inclination70.0018
Eccentricity0.0003773
Argument of Perigee267.2689
Mean Anonmoly92.8075
Mean Motion15.69931175
Decay Rate2.772E-05
L11 55941U 23037AD 23126.86890466 .00002772 00000+0 24804-4 0 9999
L22 55941 70.0018 40.2151 0003773 267.2689 92.8075 15.69931175 8393



Live tracking and technical data element details for STARLINK-5914 (NORAD 55941). STARLINK-5914 can be tracked NOW for your location showing map with azimuth and elevation plus other details from your city location.







IsCatalogInMostPopularTable: catalog: 55941, numindb: 9
Update: records affected: 1



GetName: 55941 STARLINK-5914

Hit Count: updated at: Tue, 06 Jun 2023 01:47:08 GMT